When you browse on this site, cookies collect data to enhance your experience and personalize the content and advertising you see.
Visit our Privacy Policy to learn more. By continuing to use the site, you agree to this use of cookies and data.
  • In Latvia
  • List of Countries
  • For 7 days
  • Water Temperature
  • Weather Map
  • Weather Widgets
  • user-avatar
    Login

    Hourly Weather Galuzino

    Today, 16 October, Wednesday

    Time Temperature Precipitation Wind Pressure Humidity
    00:00 +7°C° 0 mm 3 mps 751 mmHg 91%
    01:00 +6°C° 0 mm 4 mps 751 mmHg 92%
    02:00 +6°C° 0 mm 4 mps 751 mmHg 93%
    03:00 +7°C° 0 mm 4 mps 750 mmHg 92%
    04:00 +7°C° 0 mm 4 mps 750 mmHg 91%
    05:00 +8°C° 0 mm 5 mps 749 mmHg 90%
    06:00 +8°C° 0 mm 5 mps 749 mmHg 89%
    07:00 +9°C° 0 mm 5 mps 748 mmHg 89%
    08:00 +9°C° 0 mm 5 mps 748 mmHg 88%
    09:00 +10°C° 0 mm 5 mps 748 mmHg 83%
    10:00 +13°C° 0 mm 5 mps 747 mmHg 79%
    11:00 +14°C° 0 mm 5 mps 747 mmHg 75%
    12:00 +15°C° 0 mm 5 mps 746 mmHg 73%
    13:00 +15°C° 0 mm 5 mps 746 mmHg 70%
    14:00 +16°C° 0 mm 5 mps 746 mmHg 68%
    15:00 +15°C° 0 mm 4 mps 746 mmHg 71%
    16:00 +15°C° 0 mm 4 mps 745 mmHg 73%
    17:00 +14°C° 0 mm 4 mps 745 mmHg 76%
    18:00 +13°C° 0 mm 4 mps 745 mmHg 77%
    19:00 +13°C° 0 mm 4 mps 745 mmHg 78%
    20:00 +12°C° 0 mm 3 mps 744 mmHg 79%
    21:00 +12°C° 0 mm 3 mps 744 mmHg 82%
    22:00 +12°C° 0 mm 3 mps 744 mmHg 84%
    23:00 +11°C° 0 mm 3 mps 744 mmHg 87%

    Tomorrow, 17 October, Thursday

    Time Temperature Precipitation Wind Pressure Humidity
    00:00 +11°C° 0 mm 3 mps 744 mmHg 88%
    01:00 +12°C° 0 mm 3 mps 745 mmHg 89%
    02:00 +12°C° 0 mm 3 mps 745 mmHg 89%
    03:00 +12°C° 0 mm 3 mps 745 mmHg 91%
    04:00 +12°C° 0 mm 3 mps 745 mmHg 92%
    05:00 +12°C° 0 mm 3 mps 745 mmHg 94%
    06:00 +12°C° 0 mm 3 mps 745 mmHg 94%
    07:00 +12°C° 0 mm 3 mps 745 mmHg 94%
    08:00 +11°C° 0 mm 3 mps 745 mmHg 94%
    09:00 +12°C° 0 mm 4 mps 745 mmHg 87%
    10:00 +13°C° 0 mm 4 mps 745 mmHg 79%
    11:00 +13°C° 0 mm 4 mps 745 mmHg 72%
    12:00 +12°C° 0.8 mm 4 mps 745 mmHg 78%
    13:00 +12°C° 0.8 mm 4 mps 745 mmHg 84%
    14:00 +11°C° 0.8 mm 4 mps 745 mmHg 90%
    15:00 +11°C° 0.6 mm 4 mps 745 mmHg 90%
    16:00 +11°C° 0.6 mm 4 mps 745 mmHg 91%
    17:00 +11°C° 0.6 mm 4 mps 745 mmHg 91%
    18:00 +11°C° 0.3 mm 4 mps 745 mmHg 92%
    19:00 +11°C° 0.3 mm 3 mps 746 mmHg 92%
    20:00 +11°C° 0.3 mm 3 mps 746 mmHg 93%
    21:00 +11°C° 0.1 mm 3 mps 746 mmHg 94%
    22:00 +10°C° 0.1 mm 2 mps 747 mmHg 95%
    23:00 +10°C° 0.1 mm 2 mps 747 mmHg 96%

    Day after tomorrow, 18 October, Friday

    Time Temperature Precipitation Wind Pressure Humidity
    00:00 +9°C° 0 mm 2 mps 747 mmHg 97%
    01:00 +10°C° 0 mm 1 mps 748 mmHg 97%
    02:00 +9°C° 0 mm 1 mps 748 mmHg 97%
    03:00 +10°C° 0 mm 1 mps 748 mmHg 97%
    04:00 +10°C° 0 mm 1 mps 748 mmHg 97%
    05:00 +10°C° 0 mm 1 mps 748 mmHg 97%
    06:00 +10°C° 0.1 mm 1 mps 748 mmHg 97%
    07:00 +10°C° 0.1 mm 2 mps 748 mmHg 97%
    08:00 +10°C° 0.1 mm 2 mps 748 mmHg 96%
    09:00 +10°C° 0.1 mm 2 mps 749 mmHg 94%
    10:00 +12°C° 0.1 mm 2 mps 749 mmHg 93%
    11:00 +11°C° 0.1 mm 3 mps 749 mmHg 91%
    12:00 +12°C° 0.4 mm 3 mps 749 mmHg 90%
    13:00 +13°C° 0.4 mm 2 mps 749 mmHg 88%
    14:00 +14°C° 0.4 mm 2 mps 749 mmHg 87%
    15:00 +13°C° 0 mm 2 mps 749 mmHg 89%
    16:00 +13°C° 0 mm 2 mps 749 mmHg 90%
    17:00 +13°C° 0 mm 1 mps 749 mmHg 91%
    18:00 +12°C° 0 mm 1 mps 749 mmHg 92%
    19:00 +12°C° 0 mm 1 mps 749 mmHg 93%
    20:00 +12°C° 0 mm 1 mps 749 mmHg 94%
    21:00 +11°C° 0 mm 1 mps 749 mmHg 94%
    22:00 +11°C° 0 mm 1 mps 749 mmHg 94%
    23:00 +11°C° 0 mm 1 mps 750 mmHg 94%

    19 October, Saturday

    Time Temperature Precipitation Wind Pressure Humidity
    00:00 +11°C° 0 mm 1 mps 750 mmHg 95%
    01:00 +10°C° 0 mm 1 mps 750 mmHg 95%
    02:00 +10°C° 0 mm 1 mps 750 mmHg 95%
    03:00 +10°C° 0 mm 1 mps 750 mmHg 95%
    04:00 +9°C° 0 mm 1 mps 750 mmHg 95%
    05:00 +9°C° 0 mm 1 mps 750 mmHg 95%
    06:00 +9°C° 0 mm 1 mps 750 mmHg 95%
    07:00 +10°C° 0 mm 1 mps 750 mmHg 95%
    08:00 +10°C° 0 mm 1 mps 750 mmHg 95%
    09:00 +11°C° 0 mm 1 mps 750 mmHg 91%
    10:00 +12°C° 0 mm 1 mps 750 mmHg 87%
    11:00 +14°C° 0 mm 2 mps 750 mmHg 83%
    12:00 +14°C° 0 mm 2 mps 750 mmHg 82%
    13:00 +15°C° 0 mm 2 mps 750 mmHg 82%
    14:00 +15°C° 0 mm 2 mps 750 mmHg 81%
    15:00 +15°C° 0 mm 2 mps 749 mmHg 85%
    16:00 +14°C° 0 mm 2 mps 749 mmHg 89%
    17:00 +13°C° 0 mm 2 mps 749 mmHg 92%
    18:00 +13°C° 0 mm 2 mps 749 mmHg 92%
    19:00 +12°C° 0 mm 3 mps 749 mmHg 91%
    20:00 +12°C° 0 mm 3 mps 749 mmHg 90%
    21:00 +11°C° 0 mm 3 mps 749 mmHg 90%
    22:00 +11°C° 0 mm 3 mps 749 mmHg 90%
    23:00 +11°C° 0 mm 3 mps 749 mmHg 89%

    20 October, Sunday

    Time Temperature Precipitation Wind Pressure Humidity
    00:00 +11°C° 0 mm 3 mps 748 mmHg 90%
    01:00 +11°C° 0 mm 3 mps 748 mmHg 90%
    02:00 +11°C° 0 mm 3 mps 748 mmHg 91%
    03:00 +11°C° 0 mm 3 mps 748 mmHg 91%
    04:00 +10°C° 0 mm 3 mps 747 mmHg 90%
    05:00 +10°C° 0 mm 3 mps 747 mmHg 90%
    06:00 +10°C° 0 mm 4 mps 747 mmHg 89%
    07:00 +11°C° 0 mm 4 mps 747 mmHg 89%
    08:00 +11°C° 0 mm 4 mps 747 mmHg 88%
    09:00 +12°C° 0 mm 4 mps 747 mmHg 84%
    10:00 +13°C° 0 mm 4 mps 747 mmHg 80%
    11:00 +14°C° 0 mm 4 mps 747 mmHg 76%
    12:00 +14°C° 0 mm 4 mps 747 mmHg 75%
    13:00 +15°C° 0 mm 4 mps 747 mmHg 73%
    14:00 +15°C° 0 mm 4 mps 747 mmHg 72%
    15:00 +16°C° 0 mm 3 mps 747 mmHg 76%
    16:00 +14°C° 0 mm 3 mps 747 mmHg 80%
    17:00 +14°C° 0 mm 2 mps 746 mmHg 84%
    18:00 +14°C° 0 mm 2 mps 747 mmHg 85%
    19:00 +13°C° 0 mm 2 mps 747 mmHg 87%
    20:00 +13°C° 0 mm 2 mps 747 mmHg 88%
    21:00 +13°C° 0 mm 2 mps 747 mmHg 90%
    22:00 +12°C° 0 mm 2 mps 747 mmHg 93%
    23:00 +12°C° 0 mm 2 mps 747 mmHg 95%

    21 October, Monday

    Time Temperature Precipitation Wind Pressure Humidity
    00:00 +12°C° 0 mm 2 mps 748 mmHg 95%
    01:00 +10°C° 0 mm 2 mps 748 mmHg 96%
    02:00 +10°C° 0 mm 2 mps 748 mmHg 97%
    03:00 +10°C° 0 mm 2 mps 748 mmHg 97%
    04:00 +10°C° 0 mm 2 mps 748 mmHg 97%
    05:00 +10°C° 0 mm 2 mps 749 mmHg 98%
    06:00 +10°C° 0 mm 2 mps 749 mmHg 97%
    07:00 +10°C° 0 mm 2 mps 749 mmHg 97%
    08:00 +10°C° 0 mm 2 mps 750 mmHg 96%
    09:00 +12°C° 0 mm 2 mps 750 mmHg 90%
    10:00 +13°C° 0 mm 2 mps 750 mmHg 84%
    11:00 +13°C° 0 mm 3 mps 751 mmHg 78%
    12:00 +14°C° 0 mm 3 mps 751 mmHg 75%
    13:00 +15°C° 0 mm 2 mps 751 mmHg 73%
    14:00 +15°C° 0 mm 2 mps 751 mmHg 70%
    15:00 +14°C° 0 mm 2 mps 751 mmHg 75%
    16:00 +13°C° 0 mm 1 mps 751 mmHg 80%
    17:00 +12°C° 0 mm 1 mps 750 mmHg 84%
    18:00 +12°C° 0 mm 1 mps 751 mmHg 86%
    19:00 +12°C° 0 mm 1 mps 751 mmHg 87%
    20:00 +12°C° 0 mm 1 mps 751 mmHg 88%
    21:00 +11°C° 0.3 mm 1 mps 751 mmHg 90%
    22:00 +11°C° 0.3 mm 1 mps 751 mmHg 91%
    23:00 +10°C° 0.3 mm 0 mps 751 mmHg 92%
    Show more